Weather History for Beach, ND

Change the Weather History Date:

Thursday, January 17, 2013

  Actual Average (KGDV) Record (KGDV)
Temperature  
Mean Temperature 32 °F -  
Max Temperature 37 °F 23 °F 44 °F (2000)
Min Temperature 28 °F 6 °F -18 °F (1997)
Degree Days  
Heating Degree Days 32    
Moisture  
Dew Point 27 °F    
Average Humidity 80    
Maximum Humidity 100    
Minimum Humidity 56    
Precipitation  
Precipitation 0.00 in - - ()
Sea Level Pressure  
Sea Level Pressure 30.13 in    
Wind  
Wind Speed 11 mph (WSW)    
Max Wind Speed 20 mph    
Max Gust Speed 26 mph    
Visibility 10 miles    
Events      
Averages and records for this station are not official NWS values.
T = Trace of Precipitation, MM = Missing Value Source: NWS Daily Summary

Daily Weather History Graph

Daily Weather History Graph

Search for Another Location

Airport:

Trip Planner

Search our weather history database for the weather conditions in past years. The results will help you decide how hot, cold, wet, or windy it might be!

Date:

Astronomy

Jan. 17, 2013 Rise Set
Actual Time 7:35 AM MST 4:37 PM MST
Civil Twilight 7:01 AM MST 5:11 PM MST
Nautical Twilight 6:23 AM MST 5:48 PM MST
Astronomical Twilight 5:47 AM MST 6:25 PM MST
Moon 10:15 AM MST (1/17) No Moon Set
Length of Visible Light 10h 09m
Length of Day
9h 01m
Waxing Crescent, 38% of the Moon is Illuminated
Jan 17
Waxing Crescent
Jan 18
First Quarter
Jan 26
Full
Feb 3
Last Quarter
Feb 10
New

Hourly Weather History & Observations

Time (MST) Temp. Windchill Dew Point Humidity Pressure Visibility Wind Dir Wind Speed Gust Speed Precip Events Conditions
12:15 AM 32.0 °F 21.6 °F 30.2 °F 93% 30.20 in 10.0 mi NW 15.0 mph - N/A   Overcast
12:35 AM 33.8 °F 23.9 °F 30.2 °F 87% 30.21 in 10.0 mi NW 15.0 mph 20.7 mph N/A   Overcast
12:55 AM 32.0 °F 23.0 °F 30.2 °F 93% 30.21 in 10.0 mi NW 11.5 mph - N/A   Overcast
1:15 AM 32.0 °F 23.6 °F 30.2 °F 93% 30.21 in 10.0 mi NW 10.4 mph - N/A   Overcast
1:35 AM 32.0 °F 24.8 °F 30.2 °F 93% 30.22 in 10.0 mi WNW 8.1 mph - N/A   Overcast
1:55 AM 32.0 °F 24.8 °F 30.2 °F 93% 30.23 in 10.0 mi West 8.1 mph - N/A   Overcast
2:35 AM 32.0 °F 23.6 °F 30.2 °F 93% 30.24 in 10.0 mi WNW 10.4 mph - N/A   Overcast
2:55 AM 32.0 °F 24.8 °F 30.2 °F 93% 30.24 in 10.0 mi WNW 8.1 mph - N/A   Overcast
3:15 AM 32.0 °F 25.6 °F 30.2 °F 93% 30.24 in 10.0 mi West 6.9 mph - N/A   Overcast
3:35 AM 32.0 °F 24.2 °F 30.2 °F 93% 30.25 in 10.0 mi West 9.2 mph - N/A   Overcast
3:55 AM 32.0 °F 24.2 °F 30.2 °F 93% 30.25 in 10.0 mi West 9.2 mph - N/A   Overcast
4:15 AM 32.0 °F 23.6 °F 30.2 °F 93% 30.25 in 10.0 mi WNW 10.4 mph - N/A   Overcast
4:35 AM 32.0 °F 23.0 °F 28.4 °F 87% 30.26 in 10.0 mi WNW 11.5 mph - N/A   Overcast
5:15 AM 32.0 °F 23.6 °F 28.4 °F 87% 30.25 in 10.0 mi West 10.4 mph - N/A   Overcast
5:35 AM 32.0 °F 24.2 °F 28.4 °F 87% 30.25 in 10.0 mi WNW 9.2 mph - N/A   Overcast
5:55 AM 32.0 °F 27.5 °F 28.4 °F 87% 30.25 in 10.0 mi WNW 4.6 mph - N/A   Overcast
6:15 AM 32.0 °F 25.6 °F 30.2 °F 93% 30.26 in 10.0 mi WNW 6.9 mph - N/A   Overcast
6:35 AM 32.0 °F 24.8 °F 30.2 °F 93% 30.25 in 10.0 mi West 8.1 mph - N/A   Overcast
6:55 AM 32.0 °F 25.6 °F 28.4 °F 87% 30.24 in 10.0 mi West 6.9 mph - N/A   Overcast
7:15 AM 30.2 °F 23.4 °F 28.4 °F 93% 30.25 in 10.0 mi WSW 6.9 mph - N/A   Overcast
7:35 AM 28.4 °F 22.2 °F 28.4 °F 100% 30.25 in 10.0 mi SW 5.8 mph - N/A   Overcast
7:55 AM 28.4 °F 20.4 °F 26.6 °F 93% 30.25 in 10.0 mi WSW 8.1 mph - N/A   Overcast
8:15 AM 28.4 °F 21.2 °F 26.6 °F 93% 30.26 in 10.0 mi WSW 6.9 mph - N/A   Overcast
8:35 AM 28.4 °F 23.3 °F 26.6 °F 93% 30.26 in 10.0 mi SW 4.6 mph - N/A   Overcast
8:55 AM 28.4 °F 23.3 °F 26.6 °F 93% 30.26 in 10.0 mi SW 4.6 mph - N/A   Overcast
9:15 AM 28.4 °F 24.6 °F 26.6 °F 93% 30.26 in 10.0 mi SSW 3.5 mph - N/A   Mostly Cloudy
9:35 AM 28.4 °F 20.4 °F 26.6 °F 93% 30.26 in 10.0 mi South 8.1 mph - N/A   Scattered Clouds
9:55 AM 28.4 °F 22.2 °F 26.6 °F 93% 30.25 in 10.0 mi SSW 5.8 mph - N/A   Partly Cloudy
10:15 AM 30.2 °F 22.6 °F 26.6 °F 86% 30.23 in 10.0 mi SSW 8.1 mph - N/A   Partly Cloudy
10:35 AM 30.2 °F 21.3 °F 26.6 °F 86% 30.21 in 10.0 mi SSW 10.4 mph - N/A   Clear
10:55 AM 32.0 °F 24.2 °F 26.6 °F 80% 30.20 in 10.0 mi SSW 9.2 mph - N/A   Clear
11:15 AM 32.0 °F 24.2 °F 26.6 °F 80% 30.18 in 10.0 mi South 9.2 mph - N/A   Unknown
11:35 AM 32.0 °F 24.2 °F 24.8 °F 75% 30.18 in 10.0 mi SSW 9.2 mph - N/A   Partly Cloudy
11:55 AM 32.0 °F 24.8 °F 24.8 °F 75% 30.17 in 10.0 mi SSW 8.1 mph - N/A   Clear
12:15 PM 32.0 °F 26.4 °F 24.8 °F 75% 30.16 in 10.0 mi South 5.8 mph - N/A   Clear
12:35 PM 32.0 °F 24.8 °F 24.8 °F 75% 30.14 in 10.0 mi SSW 8.1 mph - N/A   Clear
12:55 PM 33.8 °F 25.3 °F 26.6 °F 75% 30.12 in 10.0 mi SSW 11.5 mph - N/A   Clear
1:15 PM 35.6 °F 27.1 °F 26.6 °F 70% 30.10 in 10.0 mi SW 12.7 mph 17.3 mph N/A   Clear
1:35 PM 35.6 °F 28.0 °F 26.6 °F 70% 30.09 in 10.0 mi WSW 10.4 mph 17.3 mph N/A   Clear
1:55 PM 35.6 °F 29.2 °F 26.6 °F 70% 30.08 in 10.0 mi SW 8.1 mph - N/A   Clear
2:15 PM 35.6 °F 26.6 °F 26.6 °F 70% 30.07 in 10.0 mi SW 13.8 mph - N/A   Clear
2:35 PM 37.4 °F 28.5 °F 26.6 °F 65% 30.06 in 10.0 mi SW 15.0 mph 19.6 mph N/A   Clear
2:55 PM 37.4 °F 29.3 °F 26.6 °F 65% 30.06 in 10.0 mi WSW 12.7 mph 19.6 mph N/A   Clear
3:55 PM 35.6 °F 26.2 °F 26.6 °F 70% 30.04 in 10.0 mi WSW 15.0 mph 19.6 mph N/A   Clear
4:35 PM 35.6 °F 25.9 °F 26.6 °F 70% 30.03 in 10.0 mi WSW 16.1 mph 25.3 mph N/A   Clear
5:35 PM 35.6 °F 25.9 °F 24.8 °F 65% 30.02 in 10.0 mi WSW 16.1 mph - N/A   Mostly Cloudy
6:15 PM 35.6 °F 26.6 °F 24.8 °F 65% 30.01 in 10.0 mi WSW 13.8 mph - N/A   Clear
6:55 PM 33.8 °F 24.8 °F 24.8 °F 70% 29.99 in 10.0 mi WSW 12.7 mph - N/A   Clear
7:15 PM 33.8 °F 24.8 °F 24.8 °F 70% 29.98 in 10.0 mi WSW 12.7 mph - N/A   Clear
7:55 PM 33.8 °F 25.3 °F 24.8 °F 70% 29.96 in 10.0 mi SW 11.5 mph 17.3 mph N/A   Clear
8:15 PM 35.6 °F 24.8 °F 24.8 °F 65% 29.94 in 10.0 mi WSW 19.6 mph 24.2 mph N/A   Clear
8:35 PM 35.6 °F 25.9 °F 24.8 °F 65% 29.93 in 10.0 mi SW 16.1 mph 21.9 mph N/A   Clear
8:55 PM 35.6 °F 25.5 °F 23.0 °F 60% 29.92 in 10.0 mi SW 17.3 mph 23.0 mph N/A   Clear
10:15 PM 35.6 °F 25.9 °F 24.8 °F 65% 29.87 in 10.0 mi SW 16.1 mph 23.0 mph N/A   Clear
10:35 PM 35.6 °F 24.8 °F 24.8 °F 65% 29.86 in 10.0 mi WSW 19.6 mph 26.5 mph N/A   Clear
10:55 PM 37.4 °F 27.5 °F 23.0 °F 56% 29.86 in 10.0 mi WSW 18.4 mph 25.3 mph N/A   Clear
11:15 PM 35.6 °F 25.5 °F 24.8 °F 65% 29.86 in 10.0 mi WSW 17.3 mph - N/A   Clear
11:35 PM 35.6 °F 25.9 °F 24.8 °F 65% 29.85 in 10.0 mi WSW 16.1 mph 21.9 mph N/A   Clear
11:55 PM 33.8 °F 24.8 °F 23.0 °F 65% 29.85 in 10.0 mi WSW 12.7 mph - N/A   Clear